Tracking 18945 objects as of 20-Jan-2018
HD Live streaming from Space Station
objects crossing your sky now

FENGYUN 1C DEB

Track FENGYUN 1C DEB now!
10-day predictions


NORAD ID: 32102
Int'l Code: 1999-025CQU
Perigee: 573.7 km
Apogee: 745.3 km
Inclination: 99.3 °
Period: 97.8 minutes
Semi major axis: 7030 km
RCS: 0.0014 m2 (small)
Launch date: May 10, 1999
Source: People's Republic of China (PRC)
Launch site: Taiyaun Space Center, China (TSC)

Note: This is SATELLITE DEBRIS
aabbcc
Your satellite tracking list
Your tracking list is empty




NASA's NSSDC Master Catalog

Two Line Element Set (TLE):
1 32102U 99025CQU 18019.28449951 +.00006942 +00000-0 +97588-3 0  9995
2 32102 099.3330 312.1198 0121974 347.0787 166.3208 14.72731664522569
Source of the keplerian elements: AFSPC